Content
SEND FEEDBACK

Daily
Averages
Monthly
Summary
Mauritania

PORT-ETIENNE, MAURITANIA


Home > Africa > Mauritania
Elevation: 10 feet     Latitude: 20 54N     Longitude: 017 06W

WEATHER
 
SELECT A DAY
Number of Records: 117,602;   Date Range: 7/1/96 - 7/23/14
 
SHARE

PRINT THIS DATA

[ ← Previous Day ]
WEATHER ALMANAC - JULY 6, 2013
[ Next Day → ]
[ °C ]   °F
Weather ElementAverageHighLow
Temperature73.4 °F85 °F (12:00 pm)68 °F (5:00 am)
Dewpoint63.3 °F72 °F (9:00 am)60.8 °F (10:00 pm)
Humidity69.7 %83 % (5:00 am)36 % (12:00 pm)
Barometer29.86 in29.92 in (9:00 am)29.80 in (5:00 pm)
Wind Speed19.3 mph24.2 mph (4:00 pm)
Wind Gust35.7 mph (4:00 pm)
Weather ElementAverage
Visibility3.6 mi
Wind DirectionWNW (307.7 °)

Weather ElementTotal
Precipitation---
Cooling Degree Days11.5 (Base 65)
Growing Degree Days26.5 (Base 50)
Averaged from 30 records on July 6, 2013
WEATHER CONDITIONS BREAKOUT
WIND DIRECTION BREAKOUT
WEATHER BY HOUR - JULY 6, 2013
[ °C ]   °F
Local TimeTemperatureDewpointHumidityBarometerVisibilityWind DirectionWind SpeedGust SpeedPrecipitationEventsConditions
12:00 AM71.6 °F62.6 °F73 %29.86 in4.3 miNNW (340°)18.4 mph
1:00 AM71.6 °F62.6 °F73 %29.86 in4.3 miNNW (340°)18.4 mph
2:00 AM69.8 °F62.6 °F78 %29.86 in4.3 miNorth (350°)16.1 mph
3:00 AM69.0 °F64.0 °F79 %29.86 in4.0 miNorth (350°)17.3 mph
3:00 AM69.8 °F62.6 °F78 %29.83 in4.3 miNNW (340°)18.4 mph
4:00 AM69.8 °F62.6 °F78 %29.86 in4.3 miNorth (360°)21.9 mph
5:00 AM68.0 °F62.6 °F83 %29.83 in4.3 miNorth (350°)18.4 mph
6:00 AM68.0 °F62.6 °F83 %29.83 in4.3 miNNW (340°)18.4 mph
6:00 AM68.0 °F64.0 °F82 %29.85 in4.0 miNNW (340°)17.3 mphPartly Cloudy
7:00 AM68.0 °F62.6 °F83 %29.83 in4.3 miNorth (350°)20.7 mph
8:00 AM69.8 °F64.4 °F83 %29.86 in4.3 miNNW (340°)17.3 mph
9:00 AM72.0 °F29.92 in4.0 miNorth (10°)23.0 mphPartly Cloudy
9:00 AM71.6 °F64.4 °F78 %29.89 in4.3 miNorth (360°)23.0 mph
10:00 AM75.2 °F62.6 °F65 %29.89 in4.3 miNorth (360°)21.9 mph
11:00 AM82.4 °F62.6 °F51 %29.89 in4.3 miNorth (360°)21.9 mph
12:00 PM84.2 °F62.6 °F48 %29.89 in4.3 miNNE (20°)18.4 mph
12:00 PM85.0 °F62.0 °F36 %29.92 in4.0 miNNE (20°)17.3 mphScattered Clouds
1:00 PM78.8 °F64.4 °F61 %29.89 in4.3 miNW (320°)15.0 mph
2:00 PM77.0 °F64.4 °F65 %29.86 in2.5 miNW (320°)19.6 mphLow Drifting Sand
3:00 PM75.2 °F64.4 °F69 %29.83 in1.5 miNW (310°)23.0 mphLow Drifting Sand
4:00 PM75.2 °F62.6 °F65 %29.83 in1.5 miNW (320°)24.2 mph35.7 mphLow Drifting Sand
5:00 PM75.2 °F64.4 °F69 %29.80 in1.5 miNNW (330°)23.0 mph35.7 mphLow Drifting Sand
6:00 PM73.4 °F62.6 °F69 %29.80 in1.5 miNNW (330°)20.7 mph32.2 mphLow Drifting Sand
6:00 PM75.0 °F64.0 °F60 %29.83 in2.0 miNNW (330°)19.6 mphBlowing Sand
7:00 PM73.4 °F62.6 °F69 %29.83 in2.5 miNNW (330°)19.6 mphLow Drifting Sand
8:00 PM73.4 °F62.6 °F69 %29.83 in3.7 miNNW (340°)17.3 mphWidespread Dust
9:00 PM73.0 °F63.0 °F62 %29.89 in1.0 miNNW (340°)15.0 mphBlowing Sand
9:00 PM73.4 °F62.6 °F69 %29.86 in3.7 miNNW (340°)16.1 mphWidespread Dust
10:00 PM71.6 °F60.8 °F69 %29.89 in5.0 miNorth (350°)18.4 mph
11:00 PM71.6 °F62.6 °F73 %29.89 in5.0 miNNW (340°)20.7 mph
Hourly data recorded from GQPP, located miles away from Port-Etienne, Mauritania







STORIES FROM OUR PARTNERS